TimeEDT,TemperatureF,Dew PointF,Humidity,Sea Level PressureIn,VisibilityMPH,Wind Direction,Wind SpeedMPH,Gust SpeedMPH,PrecipitationIn,Events,Conditions,WindDirDegrees,DateUTC
12:33 AM,73.9,72.0,93,29.87,10.0,West,4.6,-,N/A,,Scattered Clouds,280,2014-08-20 04:33:00
12:41 AM,73.9,73.0,97,29.86,7.0,West,3.5,-,N/A,,Mostly Cloudy,280,2014-08-20 04:41:00
12:54 AM,73.4,71.6,94,29.86,4.0,WNW,3.5,-,N/A,,Overcast,290,2014-08-20 04:54:00
12:56 AM,73.0,72.0,96,29.87,5.0,West,3.5,-,N/A,,Overcast,270,2014-08-20 04:56:00
1:25 AM,73.0,72.0,96,29.86,2.0,West,3.5,-,N/A,,Overcast,270,2014-08-20 05:25:00
1:32 AM,73.0,72.0,96,29.86,1.2,West,3.5,-,N/A,,Overcast,280,2014-08-20 05:32:00
1:41 AM,73.0,72.0,96,29.86,0.8,Calm,Calm,-,N/A,,Overcast,0,2014-08-20 05:41:00
1:51 AM,73.4,71.6,94,29.86,1.2,West,4.6,-,N/A,,Overcast,270,2014-08-20 05:51:00
1:56 AM,73.0,72.0,96,29.87,2.0,West,5.8,-,N/A,,Overcast,280,2014-08-20 05:56:00
2:10 AM,73.0,72.0,96,29.86,3.0,West,3.5,-,N/A,,Overcast,260,2014-08-20 06:10:00
2:22 AM,73.0,72.0,96,29.86,1.8,West,3.5,-,N/A,,Overcast,270,2014-08-20 06:22:00
2:30 AM,73.0,72.0,96,29.86,3.0,West,3.5,-,N/A,,Mostly Cloudy,280,2014-08-20 06:30:00
2:43 AM,73.0,72.0,96,29.86,7.0,WNW,3.5,-,N/A,,Scattered Clouds,290,2014-08-20 06:43:00
2:56 AM,73.0,72.0,96,29.86,8.0,WNW,4.6,-,N/A,,Clear,300,2014-08-20 06:56:00
3:56 AM,73.0,72.0,96,29.88,9.0,NW,4.6,-,N/A,,Clear,310,2014-08-20 07:56:00
4:56 AM,73.0,72.0,96,29.89,6.0,WSW,4.6,-,N/A,,Clear,240,2014-08-20 08:56:00
5:56 AM,72.0,71.1,97,29.91,5.0,WSW,4.6,-,N/A,,Clear,240,2014-08-20 09:56:00
6:30 AM,72.0,71.1,97,29.91,4.0,West,3.5,-,N/A,,Scattered Clouds,260,2014-08-20 10:30:00
6:34 AM,72.0,71.1,97,29.91,3.0,West,4.6,-,N/A,,Mostly Cloudy,260,2014-08-20 10:34:00
6:40 AM,72.0,71.1,97,29.91,2.5,WSW,4.6,-,N/A,,Scattered Clouds,250,2014-08-20 10:40:00
6:52 AM,71.6,71.6,100,29.92,1.8,WNW,4.6,-,N/A,,Scattered Clouds,290,2014-08-20 10:52:00
6:56 AM,72.0,71.1,97,29.93,2.0,WNW,4.6,-,N/A,,Scattered Clouds,290,2014-08-20 10:56:00
7:01 AM,72.0,71.1,97,29.92,3.0,West,4.6,-,N/A,,Overcast,270,2014-08-20 11:01:00
7:13 AM,72.0,71.1,97,29.93,2.5,West,3.5,-,N/A,,Scattered Clouds,270,2014-08-20 11:13:00
7:44 AM,73.0,72.0,96,29.93,1.0,WNW,4.6,-,N/A,,Scattered Clouds,290,2014-08-20 11:44:00
7:47 AM,73.0,72.0,96,29.93,0.5,WNW,4.6,-,N/A,Fog,Fog,290,2014-08-20 11:47:00
7:56 AM,73.0,72.0,96,29.94,0.2,West,4.6,-,N/A,Fog,Fog,280,2014-08-20 11:56:00
8:03 AM,73.0,72.0,96,29.94,0.2,WNW,3.5,-,N/A,Fog,Fog,290,2014-08-20 12:03:00
8:47 AM,73.9,73.0,97,29.94,0.5,NNW,3.5,-,N/A,,Overcast,340,2014-08-20 12:47:00
8:56 AM,73.9,73.0,97,29.96,0.8,NW,3.5,-,N/A,,Overcast,320,2014-08-20 12:56:00
9:06 AM,75.0,73.0,94,29.95,1.0,North,3.5,-,N/A,,Overcast,350,2014-08-20 13:06:00
9:15 AM,75.0,73.0,94,29.96,2.0,NNW,3.5,-,N/A,,Overcast,340,2014-08-20 13:15:00
9:27 AM,75.9,73.9,94,29.97,3.0,NNE,4.6,-,N/A,,Overcast,20,2014-08-20 13:27:00
9:43 AM,77.0,73.9,90,29.97,5.0,NNE,5.8,-,N/A,,Mostly Cloudy,20,2014-08-20 13:43:00
9:56 AM,78.1,73.9,87,29.98,7.0,North,6.9,-,N/A,,Mostly Cloudy,10,2014-08-20 13:56:00
10:13 AM,79.0,73.9,84,29.97,10.0,North,8.1,-,N/A,,Scattered Clouds,350,2014-08-20 14:13:00
10:56 AM,81.0,73.0,77,29.99,10.0,NNW,4.6,-,N/A,,Partly Cloudy,330,2014-08-20 14:56:00
11:56 AM,84.9,73.0,67,29.99,10.0,NNW,4.6,-,N/A,,Scattered Clouds,340,2014-08-20 15:56:00
12:20 PM,84.9,72.0,65,29.98,10.0,NW,5.8,-,N/A,,Mostly Cloudy,310,2014-08-20 16:20:00
12:56 PM,87.1,73.0,63,29.99,10.0,Variable,3.5,-,N/A,,Mostly Cloudy,0,2014-08-20 16:56:00
1:56 PM,88.0,72.0,59,29.98,10.0,North,5.8,-,N/A,,Mostly Cloudy,360,2014-08-20 17:56:00
2:03 PM,88.0,73.0,61,29.97,10.0,Variable,6.9,-,N/A,,Mostly Cloudy,0,2014-08-20 18:03:00
2:56 PM,88.0,70.0,55,29.97,10.0,Calm,Calm,-,N/A,,Scattered Clouds,0,2014-08-20 18:56:00
3:56 PM,82.9,75.0,77,29.97,10.0,South,10.4,-,N/A,,Mostly Cloudy,190,2014-08-20 19:56:00
4:56 PM,81.0,75.0,82,29.98,10.0,WSW,5.8,-,N/A,,Scattered Clouds,240,2014-08-20 20:56:00
5:56 PM,84.0,75.0,74,29.98,10.0,SW,5.8,-,N/A,,Clear,220,2014-08-20 21:56:00
6:56 PM,82.9,75.0,77,29.97,10.0,SSW,5.8,-,N/A,,Clear,210,2014-08-20 22:56:00
7:36 PM,81.0,75.0,82,29.96,10.0,South,4.6,-,N/A,,Partly Cloudy,170,2014-08-20 23:36:00
7:56 PM,81.0,75.9,85,29.98,10.0,Calm,Calm,-,N/A,,Clear,0,2014-08-20 23:56:00
8:56 PM,78.1,75.0,90,29.99,10.0,SSE,3.5,-,N/A,,Clear,160,2014-08-21 00:56:00
9:56 PM,77.0,75.0,94,30.01,10.0,SSE,3.5,-,N/A,,Clear,160,2014-08-21 01:56:00
10:56 PM,77.0,75.0,94,30.04,8.0,Calm,Calm,-,N/A,,Clear,0,2014-08-21 02:56:00
11:56 PM,75.0,73.9,96,30.04,5.0,Calm,Calm,-,N/A,,Clear,0,2014-08-21 03:56:00